Location: Unspecified
(0.0000°N, 0.0000°E)
Time: 02:23:14
(UTC+00:00)

Vanguard 1 - Pass Details

Date: 17 December 2018
Orbit: 650 x 3833 km, 34.3° (Epoch: 16 January)

Event Time Altitude Azimuth Distance (km) Brightness Sun altitude
Rises 19:44:09 0° 239° (WSW) 7,975 16.1 -24.6°
Reaches altitude 10° 19:53:56 10° 220° (SW) 6,826 15.2 -26.8°
Maximum altitude 20:05:50 16° 187° (S) 5,725 14.2 -29.5°
Drops below altitude 10° 20:15:34 10° 153° (SSE) 5,502 13.8 -31.6°
Sets 20:21:50 0° 132° (SE) 5,877 13.9 -33.0°
